Regional Weather Roundup
Issued by NWS

Home | Current Version | Previous Version | Graphics & Text | Print | Product List | Glossary Off
Versions: 1 2 3 4 5 6 7 8 9 10 11 12 13 14 15 16 17 18 19 20 21 22 23 24 25 26 27 28 29 30 31 32 33 34 35 36 37 38 39 40 41 42 43 44 45 46 47 48 49 50

000
ASUS43 KTOP 141559
RWRKS

WEATHER ROUNDUP FOR KANSAS
NATIONAL WEATHER SERVICE GOODLAND KS
1000 AM CST THU DEC 14 2017

NOTE:  "FAIR" INDICATES FEW OR NO CLOUDS BELOW 12,000 FEET WITH NO
SIGNIFICANT WEATHER AND/OR OBSTRUCTIONS TO VISIBILITY.

KSZ001>006-013>018-027>032-041>047-141700-
NORTHWEST KANSAS

CITY           SKY/WX    TMP DP  RH WIND       PRES   REMARKS
GOODLAND       CLOUDY    37  28  70 NW20G28   30.14S WCI  27
HAYS           MOSUNNY   41  26  55 NW12      30.14R
HILL CITY      MOSUNNY   43  30  60 NW18      30.13S
RUSSELL        CLOUDY    39  26  59 W12       30.12S WCI  32
$$

KSZ061>065-074>080-084>089-141700-
SOUTHWEST KANSAS

CITY           SKY/WX    TMP DP  RH WIND       PRES   REMARKS
DODGE CITY     SUNNY     43  23  45 NW16      30.18R
GARDEN CITY    CLOUDY    41  28  60 NW16      30.18R
GREAT BEND     MOSUNNY   41  23  48 NW9       30.15R
LIBERAL        CLOUDY    38  30  73 NW15      30.22R WCI  29
$$

KSZ066>073-081>083-090>101-141700-
SOUTHEAST KANSAS

CITY           SKY/WX    TMP DP  RH WIND       PRES   REMARKS
CHANUTE        CLOUDY    38  29  70 N5        30.14R
COFFEYVILLE    CLOUDY    39  29  67 NW8       30.15R
HUTCHINSON     SUNNY     39  27  62 W6        30.15R
MEDICINE LODGE   N/A     41  27  57 NW8       30.17R
NEWTON         CLOUDY    38  26  62 N8        30.15R
PARSONS        CLOUDY    37  29  72 N7        30.15R
WICHITA INTL   MOSUNNY   40  27  59 N12       30.16R WCI  33
WICHITA JABRA  CLOUDY    38  28  67 N9        30.15R
WICHITA MCCONL MOSUNNY   39  25  57 N9        30.15R
WINFIELD       MOSUNNY   39  28  64 N12       30.17R WCI  32
$$

KSZ007>012-019>026-033>040-048>060-102>105-141700-
NORTHEAST KANSAS

CITY           SKY/WX    TMP DP  RH WIND       PRES   REMARKS
CONCORDIA      SUNNY     37  28  70 NW6       30.11S
EMPORIA        CLOUDY    37  26  64 NW12      30.12R WCI  29
LAWRENCE       CLOUDY    39  26  59 W3        30.11R
MANHATTAN      CLOUDY    38  27  64 VRB5      30.14R
OLATHE IND     CLOUDY    37  26  64 NW8       30.11R
OLATHE EXE     CLOUDY    36  24  62 N6        30.10R
SALINA         PTSUNNY   40  28  62 NW9       30.15R
TOPEKA BILLARD CLOUDY    39  28  64 W6        30.12R
TOPEKA FORBES  CLOUDY    40  27  59 N10       30.11R WCI  33
$$



USA.gov is the U.S. government's official web portal to all federal, state and local government web resources and services.